Location: Ettringen
(48.1054°N, 10.6545°E)
Time: 05:23:11
(UTC+00:00)

PSLV R/B - Pass Details

Date: 18 November 2025
Orbit: 561 x 589 km, 98.0° (Epoch: 10 December)

Event Time Altitude Azimuth Distance (km) Brightness Sun altitude
Rises 17:50:02 0° 170° (S) 2,758 6.9 -22.1°
Reaches altitude 10° 17:52:11 10° 173° (S) 1,862 6.0 -22.5°
Maximum altitude 17:56:12 70° 257° (WSW) 606 3.6 -23.1°
Drops below altitude 10° 18:00:13 10° 342° (NNW) 1,867 6.2 -23.8°
Sets 18:02:23 0° 345° (NNW) 2,766 7.1 -24.2°
